GW1754 Weather Reports


time (UTC)temp
C
wind
direction
speed
KPH
gust
KPH
rain 1hr
cm
rain 24hr
cm
rain mn
cm
humidity
%
barometer
mb
20260508021019 8 314 3.2 3.2 0.00 0.00 0.00 94 1013.2
20260508020019 8 285 1.6 1.6 0.00 0.00 0.00 93 1013.2
20260508015019 8 190 1.6 4.8 0.00 0.00 0.00 93 1013.2
20260508014019 8 129 1.6 3.2 0.00 0.00 0.00 92 1013.2
20260508013019 8 259 4.8 4.8 0.00 0.00 0.00 92 1013.3
20260508012019 8 286 4.8 6.4 0.00 0.00 0.00 91 1013.2
20260508011019 8 298 4.8 6.4 0.00 0.00 0.00 91 1013.2
20260508010019 8 282 4.8 6.4 0.00 0.00 0.00 90 1013.2
20260508005019 8 284 4.8 6.4 0.00 0.00 0.00 89 1013.3
20260508004019 8 281 3.2 4.8 0.00 0.00 0.00 89 1013.4
20260508003019 8 282 3.2 4.8 0.00 0.00 0.00 88 1013.5
20260508002019 9 258 3.2 6.4 0.00 0.00 0.00 87 1013.6
20260508001011 9 242 4.8 8.0 0.00 0.00 0.00 87 1013.7
20260508000011 9 258 4.8 6.4 0.00 0.00 0.00 86 1013.7
20260507235011 9 255 4.8 8.0 0.00 0.00 0.00 85 1013.7
20260507234011 9 258 6.4 9.7 0.00 0.00 0.00 84 1013.7
20260507233011 9 257 6.4 9.7 0.00 0.00 0.00 84 1013.7
20260507232011 9 242 4.8 6.4 0.00 0.00 0.00 81 1013.7
20260507231011 10 242 6.4 9.7 0.00 0.00 0.00 80 1013.7
20260507230011 10 235 6.4 12.9 0.00 0.00 0.00 79 1013.7
20260507225011 10 223 4.8 9.7 0.00 0.00 0.00 80 1013.6
20260507224011 10 225 6.4 9.7 0.00 0.00 0.00 79 1013.5
20260507223011 10 215 6.4 9.7 0.00 0.00 0.00 79 1013.6
20260507222011 10 214 6.4 11.3 0.00 0.00 0.00 80 1013.6
20260507221010 10 211 6.4 9.7 0.00 0.00 0.00 79 1013.5
20260507220010 10 211 6.4 9.7 0.00 0.00 0.00 79 1013.4
20260507215010 10 214 6.4 11.3 0.00 0.00 0.00 78 1013.5
20260507214010 10 209 6.4 9.7 0.00 0.00 0.00 78 1013.4
20260507213010 10 204 4.8 9.7 0.00 0.00 0.00 77 1013.4
20260507212010 10 205 4.8 9.7 0.00 0.00 0.00 76 1013.4
20260507211010 10 201 4.8 11.3 0.00 0.00 0.00 75 1013.3
20260507210010 10 199 6.4 12.9 0.00 0.00 0.00 75 1013.2
20260507205010 10 211 6.4 14.5 0.00 0.00 0.00 73 1013.1
20260507204010 10 210 8.0 12.9 0.00 0.00 0.00 72 1013.1
20260507203010 10 207 6.4 12.9 0.00 0.00 0.00 72 1013.0
20260507202010 11 211 6.4 11.3 0.00 0.00 0.00 71 1012.8
20260507201010 11 213 8.0 17.7 0.00 0.00 0.00 70 1012.8
20260507200010 11 208 6.4 16.1 0.00 0.00 0.00 69 1012.8
20260507195010 11 212 9.7 17.7 0.00 0.00 0.00 69 1012.7
20260507194010 11 208 8.0 16.1 0.00 0.00 0.00 69 1012.7
20260507193010 11 206 8.0 12.9 0.00 0.00 0.00 68 1012.7
20260507192010 11 214 6.4 14.5 0.00 0.00 0.00 68 1012.6
20260507191010 11 206 8.0 17.7 0.00 0.00 0.00 67 1012.5
20260507190010 11 209 9.7 19.3 0.00 0.00 0.00 66 1012.5
20260507185010 11 206 9.7 20.9 0.00 0.00 0.00 66 1012.4
20260507184010 12 202 8.0 20.9 0.00 0.00 0.00 66 1012.4
20260507183010 12 203 8.0 14.5 0.00 0.00 0.00 65 1012.4
20260507182010 12 214 9.7 17.7 0.00 0.00 0.00 64 1012.4
20260507181009 12 210 11.3 20.9 0.00 0.00 0.00 64 1012.4
20260507180009 12 205 9.7 19.3 0.00 0.00 0.00 62 1012.5
20260507175009 12 208 9.7 22.5 0.00 0.00 0.00 62 1012.4
20260507174009 12 203 9.7 20.9 0.00 0.00 0.00 62 1012.4
20260507173009 12 206 9.7 20.9 0.00 0.00 0.00 63 1012.5
20260507172009 12 202 9.7 16.1 0.00 0.00 0.00 65 1012.6
20260507171009 12 211 11.3 19.3 0.00 0.00 0.00 64 1012.6
20260507170009 12 213 11.3 22.5 0.00 0.00 0.00 65 1012.6
20260507165009 13 208 9.7 22.5 0.00 0.00 0.00 65 1012.5
20260507164009 13 197 8.0 20.9 0.00 0.00 0.00 64 1012.5
20260507163009 13 206 12.9 24.1 0.00 0.00 0.00 62 1012.5
20260507162009 13 206 9.7 24.1 0.00 0.00 0.00 65 1012.5
20260507161009 13 209 12.9 22.5 0.00 0.00 0.00 62 1012.5
20260507160009 13 209 11.3 22.5 0.00 0.00 0.00 63 1012.4
20260507155013 14 198 11.3 20.9 0.00 0.00 0.00 62 1012.6
20260507154013 14 193 11.3 19.3 0.00 0.00 0.00 62 1012.4
20260507153013 15 202 9.7 19.3 0.00 0.00 0.00 61 1012.4
20260507152013 15 208 9.7 20.9 0.00 0.00 0.00 62 1012.4
20260507151013 15 203 11.3 25.7 0.00 0.00 0.00 61 1012.4
20260507150013 14 195 11.3 25.7 0.00 0.00 0.00 61 1012.5
20260507145013 14 195 11.3 20.9 0.00 0.00 0.00 60 1012.5
20260507144012 15 188 9.7 20.9 0.00 0.00 0.00 55 1012.6
20260507143013 15 191 11.3 22.5 0.00 0.00 0.00 57 1012.6
20260507142012 15 183 9.7 19.3 0.00 0.00 0.00 55 1012.6
20260507141012 15 198 9.7 19.3 0.00 0.00 0.00 53 1012.6
20260507140012 15 187 11.3 22.5 0.00 0.00 0.00 52 1012.6
20260507135012 15 185 9.7 22.5 0.00 0.00 0.00 53 1012.6
20260507134012 15 181 9.7 20.9 0.00 0.00 0.00 53 1012.6
20260507133012 15 186 9.7 19.3 0.00 0.00 0.00 56 1012.5
20260507132012 14 179 9.7 19.3 0.00 0.00 0.00 56 1012.5
20260507131012 14 186 9.7 20.9 0.00 0.00 0.00 57 1012.6
20260507130012 15 193 9.7 19.3 0.00 0.00 0.00 57 1012.7
20260507125012 14 168 11.3 22.5 0.00 0.00 0.00 58 1012.6
20260507124012 15 173 9.7 20.9 0.00 0.00 0.00 57 1012.7
20260507123012 15 173 9.7 20.9 0.00 0.00 0.00 58 1012.7
20260507122012 14 175 9.7 19.3 0.00 0.00 0.00 57 1012.8
20260507121012 14 166 9.7 22.5 0.00 0.00 0.00 59 1012.8
20260507120012 14 169 9.7 17.7 0.00 0.00 0.00 59 1012.7
20260507115012 14 179 9.7 20.9 0.00 0.00 0.00 59 1012.7
20260507114012 14 188 9.7 17.7 0.00 0.00 0.00 59 1012.7
20260507113012 14 175 9.7 24.1 0.00 0.00 0.00 61 1012.7
20260507112012 13 174 9.7 20.9 0.00 0.00 0.00 61 1012.7
20260507111012 13 189 9.7 19.3 0.00 0.00 0.00 63 1012.7
20260507110012 13 185 8.0 16.1 0.00 0.00 0.00 64 1012.8
20260507105011 13 184 8.0 16.1 0.00 0.00 0.00 67 1012.7
20260507104012 12 200 8.0 16.1 0.00 0.00 0.00 69 1012.8
20260507103011 13 174 8.0 19.3 0.00 0.00 0.00 75 1012.8
20260507102011 12 190 8.0 12.9 0.00 0.00 0.00 80 1012.9
20260507101011 12 210 8.0 16.1 0.00 0.00 0.00 80 1012.8
20260507100011 12 201 8.0 14.5 0.00 0.00 0.00 81 1012.8
20260507095011 12 211 9.7 17.7 0.00 0.00 0.00 84 1012.8
20260507094011 11 206 8.0 16.1 0.00 0.00 0.00 88 1012.8
20260507093011 10 217 8.0 16.1 0.00 0.00 0.00 92 1012.7
20260507092011 10 169 6.4 14.5 0.00 0.00 0.00 92 1012.6
20260507091011 11 214 6.4 12.9 0.00 0.00 0.00 87 1012.5
20260507090011 12 164 8.0 16.1 0.00 0.00 0.00 88 1012.7
20260507085011 10 168 8.0 16.1 0.00 0.00 0.00 90 1012.6
20260507084011 10 159 11.3 17.7 0.00 0.00 0.00 93 1012.6
20260507083011 10 158 11.3 17.7 0.00 0.00 0.00 95 1012.6
20260507082011 10 168 8.0 17.7 0.00 0.00 0.00 95 1012.6
20260507081011 10 156 12.9 20.9 0.00 0.00 0.00 97 1012.6
20260507080011 10 167 9.7 25.7 0.00 0.00 0.00 95 1012.6
20260507075011 10 170 11.3 24.1 0.00 0.00 0.00 85 1012.5
20260507074011 11 151 19.3 25.7 0.00 0.00 0.00 71 1012.4
20260507073011 11 152 17.7 24.1 0.00 0.00 0.00 73 1012.4
20260507072011 11 154 16.1 22.5 0.00 0.00 0.00 70 1012.4
20260507071011 11 152 17.7 22.5 0.00 0.00 0.00 70 1012.4
20260507070013 11 150 16.1 22.5 0.00 0.00 0.00 73 1012.3
20260507065010 11 150 17.7 22.5 0.00 0.00 0.00 72 1012.3
20260507064010 11 151 16.1 24.1 0.00 0.00 0.00 71 1012.4
20260507063010 11 149 16.1 22.5 0.00 0.00 0.00 72 1012.5
20260507062010 11 151 16.1 20.9 0.00 0.00 0.00 73 1012.4
20260507061010 11 153 14.5 24.1 0.00 0.00 0.00 74 1012.3
20260507060010 10 154 14.5 20.9 0.00 0.00 0.00 73 1012.3
20260507055010 10 150 16.1 20.9 0.00 0.00 0.00 78 1012.3
20260507054010 10 151 16.1 20.9 0.00 0.00 0.00 79 1012.3
20260507053010 10 150 16.1 20.9 0.00 0.00 0.00 77 1012.3
20260507052010 10 151 16.1 22.5 0.00 0.00 0.00 75 1012.3
20260507051010 10 154 14.5 19.3 0.00 0.00 0.00 73 1012.3
20260507050010 10 154 12.9 19.3 0.00 0.00 0.00 71 1012.3
20260507045010 10 156 12.9 19.3 0.00 0.00 0.00 71 1012.3
20260507044010 10 155 12.9 17.7 0.00 0.00 0.00 71 1012.2
20260507043010 10 154 12.9 17.7 0.00 0.00 0.00 72 1012.2
20260507042010 10 154 11.3 17.7 0.00 0.00 0.00 72 1012.2
20260507041010 10 158 11.3 17.7 0.00 0.00 0.00 74 1012.2
20260507040010 10 156 9.7 16.1 0.00 0.00 0.00 74 1012.2
20260507035010 10 161 9.7 16.1 0.00 0.00 0.00 73 1012.3
20260507034010 10 159 9.7 17.7 0.00 0.00 0.00 74 1012.3
20260507033010 10 159 9.7 16.1 0.00 0.00 0.00 73 1012.3
20260507032010 10 159 11.3 17.7 0.00 0.00 0.00 73 1012.4
20260507031009 10 162 9.7 17.7 0.00 0.00 0.00 73 1012.5
20260507030009 10 162 8.0 17.7 0.00 0.00 0.00 73 1012.5
20260507025009 10 172 6.4 16.1 0.00 0.00 0.00 74 1012.4
20260507024009 10 175 6.4 12.9 0.00 0.00 0.00 74 1012.5
20260507023009 10 179 4.8 12.9 0.00 0.00 0.00 74 1012.5
20260507022009 10 172 6.4 11.3 0.00 0.00 0.00 73 1012.5